Regional Weather Roundup
Issued by NWS State College, PA

Home | Current Version | Previous Version | Text Only | Print | Product List | Glossary On
Versions: 1 2 3 4 5 6 7 8 9 10 11 12 13 14 15 16 17 18 19 20 21 22 23 24 25 26 27 28 29 30 31 32 33 34 35 36 37 38 39 40 41 42 43 44 45 46 47 48 49 50
000
ASUS41 KCTP 231210
RWRCTP

REGIONAL WEATHER ROUNDUP
NATIONAL WEATHER SERVICE STATE COLLEGE PA
800 AM EDT THU OCT 23 2014

Note: "fair" indicates few or no clouds below 12,000 feet with no
significant weather and/or obstructions to visibility.

* = STATION THAT DOES NOT REPORT PRECIPITATION /E.G. RAIN...SNOW...ETC/
    THUNDER OR FOG.

PAZ002>004-007>009-013>016-020>023-029>032-231300-
WESTERN PENNSYLVANIA

CITY           SKY/WX    TMP DP  RH WIND       PRES   REMARKS
ERIE           CLEAR     49  41  74 N5        30.16F
MEADVILLE      CLEAR     44  40  85 NW6       30.14S
FRANKLIN*      CLOUDY    45  37  76 N5        30.13S
NEW CASTLE       N/A     46  43  90 CALM      30.17R
BEAVER COUNTY  CLOUDY    45  43  93 NW3       30.16R
BUTLER*        CLOUDY    46  39  76 W6        30.14F
PITTSBURGH INT CLOUDY    47  42  83 NW12      30.14S
PITTSBURGH     CLOUDY    47  39  74 NW9       30.11F
INDIANA*       CLOUDY    45  41  87 NW3       30.11F
LATROBE        CLOUDY   N/A N/A N/A CALM      30.12S
WASHINGTON CO* CLOUDY    45  41  87 NW3       30.16F
$$

PAZ004>006-010>012-017>019-024>028-033>037-041-042-045-046-049>053-231300-
CENTRAL PENNSYLVANIA

CITY           SKY/WX    TMP DP  RH WIND       PRES   REMARKS
BRADFORD       CLOUDY    42  37  82 N12G21    30.07S
DUBOIS         CLOUDY    43  38  82 NW12G21   30.05S
CLEARFIELD     CLOUDY    44  38  79 NW9       30.04F
JOHNSTOWN      CLOUDY    42  38  85 NW14      30.04F
ALTOONA        CLOUDY    47  40  76 NW12G21   30.00F
STATE COLLEGE  CLOUDY    48  39  71 N9G18     29.98S
WILLIAMSPORT   CLOUDY    51  41  68 NW9G21    29.92R
SELINSGROVE    CLOUDY    52  42  69 NW13      29.91R
FT INDIANTOWN  CLOUDY    52  45  78 N12G21    29.87R
CAPITAL CITY   CLOUDY    55  42  61 NW12      29.90R
HARRISBURG     CLOUDY    53  41  63 N13G20    29.88R
YORK           CLOUDY    52  42  69 NW14G21   29.88S
$$

PAZ038>040-043-044-047-048-054-055-060>062-067>071-231300-
EASTERN PENNSYLVANIA

CITY           SKY/WX    TMP DP  RH WIND       PRES   REMARKS
SCRANTON       RAIN      45  41  86 N10       29.87R FOG
MOUNT POCONO   LGT RAIN  43  40  89 NW20G29   29.79S
ALLENTOWN      CLOUDY    50  42  74 NW10      29.80R
QUAKERTOWN*    CLOUDY    48  45  87 NW12G21   29.79S
READING        CLOUDY    51  44  77 NW15      29.82S
LANCASTER      CLOUDY    52  42  69 NW16G24   29.84F
COATESVILLE    LGT RAIN  48  45  87 NW17G23   29.81S
POTTSTOWN      CLOUDY    51  43  74 NW15G22   29.81R
BLUE BELL      CLOUDY    50  46  87 NW7       29.77S
DOYLESTOWN     CLOUDY    48  46  93 NW10G21   29.76R
WILLOW GROVE   NOT AVBL
NORTH PHILA    LGT RAIN  51  45  79 NW13      29.77S
PHILADELPHIA   LGT RAIN  51  46  83 NW16G24   29.77S
$$



USA.gov is the U.S. government's official web portal to all federal, state and local government web resources and services.